1545840001.17,30968,2.88,73254.5,-8.71,-13.73,-15.07,0,*5F
1545840002.44,30969,2.88,73244.8,-8.73,-13.87,-15.11,0,*50
1545840003.7,30970,2.81,73250.0,-8.73,-13.87,-15.07,0,*5F
1545840004.95,30971,2.88,73258.3,-8.73,-13.93,-15.25,0,*5B
1545840006.21,30972,2.88,73252.3,-8.71,-13.97,-15.01,0,*58
1545840007.49,30973,2.88,73250.0,-8.73,-14.05,-15.25,0,*51
1545840008.79,30974,2.88,73254.8,-8.73,-14.05,-15.21,0,*52
1545840010.05,30975,2.88,73256.0,-8.71,-14.05,-15.21,0,*51
1545840011.32,30976,2.88,73256.3,-8.73,-14.05,-15.11,0,*53
1545840012.62,30977,2.81,73252.0,-8.73,-14.05,-15.01,0,*53
1545840013.89,30978,2.81,73250.8,-8.73,-14.11,-15.01,0,*59
1545840015.16,30979,2.88,73256.3,-8.73,-14.05,-15.07,0,*5B
1545840016.45,30980,2.81,73258.5,-8.73,-14.01,-15.01,0,*5F
1545840017.74,30981,2.88,73254.0,-8.73,-14.01,-15.01,0,*5E
1545840019.04,30982,2.81,73256.8,-8.73,-14.01,-15.01,0,*5D
1545840020.3,30983,2.88,73258.0,-8.73,-13.93,-14.93,0,*5A
1545840021.56,30984,2.81,73254.3,-8.73,-13.79,-14.89,0,*52
1545840022.86,30985,2.81,73254.0,-8.73,-14.01,-14.93,0,*50
1545840024.12,30986,2.88,73254.3,-8.73,-13.87,-15.07,0,*56
1545840025.36,30987,2.81,73260.3,-8.71,-13.87,-15.07,0,*55
1545840026.61,30988,2.88,73260.8,-8.75,-14.01,-15.11,0,*50
1545840027.9,30989,2.88,73260.0,-8.73,-14.05,-15.21,0,*50
1545840029.13,30990,2.88,73258.8,-8.75,-13.93,-15.21,0,*56
1545840030.43,30991,2.88,73258.0,-8.73,-14.01,-15.21,0,*5D
1545840031.69,30992,2.88,73260.3,-8.73,-13.93,-15.21,0,*52
1545840032.93,30993,2.88,73256.5,-8.73,-13.93,-15.11,0,*50
1545840034.16,30994,2.88,73262.5,-8.73,-13.93,-15.07,0,*50
1545840035.37,30995,2.81,73262.3,-8.75,-13.93,-15.11,0,*50
1545840036.64,30996,2.88,73264.3,-8.73,-13.79,-15.07,0,*56
1545840037.91,30997,2.88,73262.0,-8.73,-14.01,-15.07,0,*5F
1545840039.18,30998,2.88,73266.0,-8.73,-14.05,-15.25,0,*54
1545840040.43,30999,2.88,73254.5,-8.75,-14.05,-15.11,0,*54
1545840041.67,31000,2.81,73244.3,-8.71,-14.15,-15.21,0,*5A
1545840042.94,31001,2.88,73256.5,-8.73,-14.05,-15.07,0,*5C
1545840044.21,31002,2.88,73252.8,-8.73,-14.01,-15.07,0,*5B
1545840045.48,31003,2.88,73246.8,-8.73,-14.11,-15.01,0,*5D
1545840046.75,31004,2.81,73250.8,-8.73,-14.11,-14.93,0,*50
1545840048.0,31005,2.88,73246.5,-8.73,-14.15,-15.07,0,*59
1545840049.24,31006,2.88,73254.0,-8.71,-14.29,-15.21,0,*53
1545840050.45,31007,2.81,73252.3,-8.71,-14.29,-15.15,0,*55
1545840051.71,31008,2.88,73250.5,-8.73,-14.33,-15.21,0,*54
1545840052.92,31009,2.81,73250.3,-8.71,-14.29,-15.07,0,*58
1545840054.17,31010,2.88,73250.0,-8.73,-14.33,-15.25,0,*59
1545840055.44,31011,2.81,73256.3,-8.73,-14.23,-15.21,0,*5D
1545840056.71,31012,2.81,73244.3,-8.73,-14.23,-15.21,0,*5E
1545840057.98,31013,2.88,73244.0,-8.73,-14.19,-15.21,0,*56
1545840059.22,31014,2.88,73256.8,-8.73,-14.19,-15.11,0,*52
1545840060.44,31015,2.88,73248.8,-8.71,-14.19,-15.15,0,*55
1545840061.69,31016,2.88,73250.0,-8.73,-14.23,-15.11,0,*59
1545840062.93,31017,2.88,73258.5,-8.73,-14.23,-15.11,0,*58
1545840064.15,31018,2.88,73254.0,-8.71,-14.19,-15.15,0,*58
1545840065.4,31019,2.88,73256.3,-8.73,-14.37,-15.25,0,*54
1545840066.67,31020,2.81,73244.3,-8.73,-14.23,-15.21,0,*5F
1545840067.89,31021,2.88,73246.3,-8.71,-14.19,-15.07,0,*51
1545840069.13,31022,2.88,73250.0,-8.73,-14.19,-15.11,0,*57
1545840070.38,31023,2.88,73250.8,-8.73,-14.11,-15.11,0,*5E
1545840071.6,31024,2.88,73250.3,-8.71,-14.19,-15.11,0,*53
1545840072.84,31025,2.81,73244.8,-8.71,-14.05,-15.07,0,*58
1545840074.11,31026,2.88,73248.8,-8.73,-14.01,-15.07,0,*5D
1545840075.41,31027,2.88,73256.0,-8.73,-14.01,-15.01,0,*5A
1545840076.65,31028,2.88,73254.5,-8.71,-13.97,-14.89,0,*5E
1545840077.92,31029,2.88,73252.5,-8.73,-14.01,-15.11,0,*55
1545840079.17,31030,2.81,73248.3,-8.71,-14.05,-15.07,0,*5C
1545840080.41,31031,2.88,73250.8,-8.73,-14.19,-15.07,0,*52
1545840081.68,31032,2.88,73254.8,-8.73,-14.19,-15.21,0,*55
1545840082.92,31033,2.88,73248.3,-8.71,-14.19,-15.21,0,*56
1545840084.17,31034,2.81,73252.3,-8.73,-14.19,-15.11,0,*50
1545840085.41,31035,2.88,73252.8,-8.73,-14.19,-15.11,0,*51
1545840086.64,31036,2.88,73262.0,-8.71,-14.15,-15.15,0,*58
1545840087.88,31037,2.88,73254.0,-8.71,-14.15,-15.21,0,*5E
1545840089.13,31038,2.88,73248.3,-8.71,-14.01,-15.07,0,*50
1545840090.39,31039,2.81,73242.0,-8.71,-13.87,-15.01,0,*5E
1545840091.66,31040,2.88,73242.8,-8.71,-13.83,-14.83,0,*5F
1545840092.93,31041,2.81,73246.0,-8.71,-13.83,-14.97,0,*5B
1545840094.17,31042,2.81,73242.3,-8.71,-13.79,-14.89,0,*52
1545840095.38,31043,2.81,73240.5,-8.71,-13.73,-14.89,0,*59
1545840096.6,31044,2.88,73248.3,-8.71,-13.73,-14.89,0,*5E
1545840097.89,31045,2.81,73242.8,-8.73,-13.79,-14.93,0,*5C
1545840099.1,31046,2.81,73240.5,-8.71,-13.73,-14.89,0,*5C
1545840100.34,31047,2.88,73234.8,-8.71,-13.73,-14.97,0,*52
1545840101.6,31048,2.88,73246.3,-8.73,-13.65,-14.75,0,*54
1545840102.84,31049,2.88,73240.8,-8.71,-13.69,-14.83,0,*52
1545840104.08,31050,2.81,73236.8,-8.71,-13.69,-14.83,0,*5A
1545840105.34,31051,2.88,73252.8,-8.71,-13.61,-14.75,0,*5A
1545840106.58,31052,2.88,73254.8,-8.71,-13.69,-14.83,0,*58
1545840107.79,31053,2.88,73246.0,-8.71,-13.69,-14.69,0,*5D
1545840109.05,31054,2.81,73246.5,-8.71,-13.61,-14.75,0,*5F
1545840110.34,31055,2.88,73256.0,-8.73,-13.61,-14.75,0,*5C
1545840111.56,31056,2.81,73244.0,-8.71,-13.51,-14.61,0,*5B
1545840112.8,31057,2.81,73240.0,-8.71,-13.61,-14.61,0,*59
1545840114.06,31058,2.81,73246.3,-8.73,-13.65,-14.75,0,*55
1545840115.34,31059,2.88,73248.0,-8.73,-13.61,-14.75,0,*50
1545840116.61,31060,2.81,73248.0,-8.73,-13.65,-14.79,0,*52
1545840117.82,31061,2.88,73250.8,-8.71,-13.55,-14.61,0,*5B
1545840119.03,31062,2.88,73252.5,-8.71,-13.55,-14.61,0,*58
1545840120.24,31063,2.88,73248.3,-8.71,-13.55,-14.69,0,*51
1545840121.51,31064,2.88,73248.3,-8.69,-13.61,-14.61,0,*50
1545840122.77,31065,2.88,73250.8,-8.73,-13.65,-14.75,0,*5B
1545840123.97,31066,2.88,73254.3,-8.71,-13.47,-14.61,0,*5F
1545840125.18,31067,2.88,73252.5,-8.71,-13.47,-14.69,0,*56
1545840126.39,31068,2.81,73250.8,-8.71,-13.47,-14.61,0,*51
1545840127.62,31069,2.88,73248.3,-8.71,-13.61,-14.61,0,*54
1545840128.86,31070,2.81,73254.3,-8.69,-13.69,-14.69,0,*55
1545840130.1,31071,2.88,73254.5,-8.71,-13.73,-14.75,0,*5B
1545840131.33,31072,2.88,73262.5,-8.71,-13.61,-14.69,0,*56
1545840132.54,31073,2.81,73258.5,-8.71,-13.55,-14.69,0,*50
1545840133.8,31074,2.88,73248.5,-8.73,-13.65,-14.75,0,*5B
1545840135.03,31075,2.88,73242.8,-8.71,-13.69,-14.75,0,*54
1545840136.25,31076,2.88,73246.8,-8.71,-13.69,-14.61,0,*52
1545840137.46,31077,2.88,73250.0,-8.71,-13.55,-14.69,0,*54
1545840138.69,31078,2.88,73244.3,-8.71,-13.69,-14.83,0,*50
1545840139.93,31079,2.81,73238.0,-8.71,-13.61,-14.69,0,*5D
1545840141.17,31080,2.88,73254.0,-8.71,-13.61,-14.61,0,*53
1545840142.38,31081,2.88,73252.5,-8.71,-13.47,-14.61,0,*56
1545840143.59,31082,2.81,73250.5,-8.71,-13.55,-14.61,0,*56
1545840144.82,31083,2.81,73248.0,-8.71,-13.61,-14.69,0,*58
1545840146.06,31084,2.81,73252.8,-8.71,-13.61,-14.69,0,*5F
1545840147.32,31085,2.88,73240.5,-8.69,-13.55,-14.75,0,*5D
1545840148.53,31086,2.81,73240.0,-8.71,-13.69,-14.61,0,*5D
1545840149.77,31087,2.88,73254.0,-8.69,-13.55,-14.69,0,*52
1545840151.0,31088,2.88,73248.8,-8.71,-13.43,-14.55,0,*5C
1545840152.24,31089,2.88,73252.5,-8.71,-13.55,-14.55,0,*5A
1545840153.51,31090,2.88,73244.8,-8.73,-13.61,-14.65,0,*54
1545840154.72,31091,2.81,73250.3,-8.71,-13.55,-14.61,0,*54
1545840155.93,31092,2.88,73256.8,-8.71,-13.47,-14.61,0,*54
1545840157.22,31093,2.88,73252.5,-8.73,-13.61,-14.75,0,*56
1545840158.43,31094,2.81,73248.8,-8.71,-13.55,-14.69,0,*59
1545840159.64,31095,2.88,73256.0,-8.71,-13.55,-14.69,0,*58
1545840160.9,31096,2.81,73256.3,-8.71,-13.61,-14.75,0,*51
1545840162.13,31097,2.88,73258.0,-8.71,-13.69,-14.75,0,*58
1545840163.37,31098,2.88,73256.3,-8.71,-13.69,-14.83,0,*5E
1545840164.62,31099,2.88,73256.3,-8.71,-13.83,-14.89,0,*51
1545840165.91,31100,2.88,73258.0,-8.73,-13.79,-14.93,0,*5C
1545840167.19,31101,2.81,73254.8,-8.73,-13.79,-14.93,0,*5D
1545840168.48,31102,2.81,73246.8,-8.73,-13.87,-14.79,0,*5B
1545840169.75,31103,2.88,73254.5,-8.73,-13.87,-14.89,0,*55
1545840171.02,31104,2.81,73250.5,-8.73,-13.79,-14.89,0,*53
1545840172.3,31105,2.88,73252.0,-8.73,-13.79,-14.83,0,*58
1545840173.59,31106,2.88,73254.0,-8.73,-13.79,-14.79,0,*5E
1545840174.86,31107,2.88,73240.5,-8.73,-13.93,-14.97,0,*5B
1545840176.1,31108,2.88,73250.5,-8.73,-13.93,-14.89,0,*5B
1545840177.34,31109,2.81,73254.8,-8.73,-13.93,-14.89,0,*5A
1545840178.6,31110,2.88,73250.3,-8.73,-13.93,-15.01,0,*53
1545840179.83,31111,2.81,73250.0,-8.71,-13.93,-14.93,0,*5A
1545840181.1,31112,2.81,73260.8,-8.73,-13.87,-14.89,0,*55
1545840182.37,31113,2.81,73258.8,-8.71,-13.97,-14.97,0,*58
1545840183.64,31114,2.88,73258.5,-8.71,-14.05,-14.93,0,*57
1545840184.93,31115,2.88,73260.5,-8.73,-14.05,-14.93,0,*54
1545840186.2,31116,2.81,73246.8,-8.71,-13.83,-14.83,0,*5D
1545840187.41,31117,2.88,73254.0,-8.71,-13.15,-14.15,0,*5C
1545840188.68,31118,2.88,73246.5,-8.73,-12.93,-13.61,0,*5A
1545840189.91,31119,2.88,73266.0,-8.71,-12.89,-14.01,0,*53
1545840191.15,31120,2.88,73260.0,-8.71,-13.29,-14.33,0,*53
1545840192.41,31121,2.81,73254.8,-8.73,-13.61,-14.37,0,*58
1545840193.68,31122,2.88,73262.3,-8.71,-13.33,-14.01,0,*5B
1545840194.91,31123,2.88,73264.5,-8.71,-13.11,-13.97,0,*52
1545840196.15,31124,2.88,73236.5,-8.71,-13.01,-12.97,0,*55
1545840197.41,31125,2.88,73234.8,-8.71,-11.97,-11.85,0,*59
1545840198.65,31126,2.88,73236.8,-8.71,-11.19,-11.07,0,*56
1545840199.89,31127,2.88,73234.5,-8.71,-10.49,-10.75,0,*57
1545840201.1,31128,2.88,73240.0,-8.71,-10.23,-10.49,0,*5B
1545840202.34,31129,2.81,73238.0,-8.69,-9.97,-10.35,0,*6F
1545840203.59,31130,2.88,73230.3,-8.69,-9.83,-10.53,0,*62
1545840204.84,31131,2.88,73236.5,-8.69,-9.93,-10.79,0,*6A
1545840206.05,31132,2.81,73234.8,-8.67,-10.01,-10.89,0,*5B
1545840207.29,31133,2.88,73250.3,-8.69,-10.31,-11.19,0,*5F
1545840208.55,31134,2.81,73258.0,-8.67,-10.41,-11.29,0,*52
1545840209.78,31135,2.81,73218.3,-8.67,-10.89,-12.57,0,*5D
1545840210.99,31136,2.88,73216.8,-8.67,-11.23,-12.43,0,*5A
1545840212.21,31137,2.81,73220.8,-8.67,-11.41,-12.25,0,*5F
1545840213.46,31138,2.88,73232.3,-8.65,-11.97,-13.43,0,*58
1545840214.74,31139,2.88,73244.0,-8.65,-12.79,-13.83,0,*56
1545840216.0,31140,2.81,73242.3,-8.65,-12.97,-13.83,0,*58
1545840217.23,31141,2.88,73240.0,-8.65,-13.15,-14.11,0,*5E
1545840218.46,31142,2.81,73238.3,-8.65,-13.23,-13.93,0,*55
1545840219.69,31143,2.88,73246.3,-8.65,-12.97,-13.93,0,*5A
1545840220.95,31144,2.81,73246.8,-8.65,-13.37,-14.23,0,*5A
1545840222.24,31145,2.81,73258.8,-8.65,-13.29,-14.01,0,*54
1545840223.52,31146,2.81,73234.5,-8.65,-13.29,-14.01,0,*57
1545840224.78,31147,2.88,73234.5,-8.65,-13.15,-13.83,0,*54
1545840226.03,31148,2.81,73232.8,-8.65,-13.07,-13.79,0,*5D
1545840227.26,31149,2.88,73240.5,-8.65,-12.93,-13.43,0,*59
1545840228.52,31150,2.88,73248.3,-8.65,-12.25,-12.65,0,*59
1545840229.8,31151,2.88,73236.5,-8.65,-11.97,-12.75,0,*53
1545840231.02,31152,2.88,73246.5,-8.63,-12.21,-13.11,0,*5B
1545840232.28,31153,2.81,73236.3,-8.65,-12.93,-13.97,0,*5B
1545840233.55,31154,2.81,73244.0,-8.65,-13.11,-14.01,0,*5F
1545840234.77,31155,2.88,73248.5,-8.65,-13.15,-14.11,0,*5B
1545840236.03,31156,2.81,73250.0,-8.65,-13.37,-14.23,0,*59
1545840237.3,31157,2.81,73254.0,-8.65,-13.29,-14.15,0,*52
1545840238.56,31158,2.81,73246.0,-8.65,-13.37,-14.37,0,*52
1545840239.84,31159,2.88,73254.8,-8.65,-13.29,-14.01,0,*59
1545840241.11,31160,2.88,73254.3,-8.63,-13.01,-13.97,0,*57
1545840242.37,31161,2.81,73250.8,-8.65,-13.07,-13.97,0,*56
1545840243.6,31162,2.81,73256.8,-8.65,-12.93,-13.69,0,*58
1545840244.88,31163,2.88,73258.5,-8.65,-12.79,-13.37,0,*56
1545840246.11,31164,2.81,73248.5,-8.65,-12.43,-13.15,0,*58
1545840247.35,31165,2.81,73252.0,-8.65,-12.29,-13.23,0,*50
1545840248.58,31166,2.88,73254.0,-8.63,-12.25,-13.01,0,*59
1545840249.87,31167,2.81,73256.0,-8.65,-11.85,-12.53,0,*51
1545840251.15,31168,2.81,73262.8,-8.65,-11.67,-12.65,0,*57
1545840252.43,31169,2.88,73260.5,-8.65,-11.81,-12.79,0,*53
1545840253.67,31170,2.88,73232.8,-8.63,-12.07,-13.51,0,*5B
1545840254.89,31171,2.81,73246.0,-8.65,-12.39,-13.43,0,*52
1545840256.1,31172,2.88,73252.0,-8.63,-12.25,-13.65,0,*5E
1545840257.33,31173,2.81,73242.8,-8.63,-12.83,-14.11,0,*57
1545840258.56,31174,2.81,73250.8,-8.65,-13.15,-14.15,0,*5C
1545840259.77,31175,2.81,73258.8,-8.63,-13.19,-14.11,0,*53
1545840260.97,31176,2.88,73260.8,-8.63,-13.23,-14.11,0,*59
1545840262.23,31177,2.88,73258.5,-8.65,-13.29,-14.23,0,*55
1545840263.47,31178,2.81,73250.5,-8.65,-13.51,-14.37,0,*50
1545840264.72,31179,2.81,73248.3,-8.65,-13.51,-14.29,0,*5E
1545840265.95,31180,2.81,73250.5,-8.61,-13.47,-14.37,0,*54
1545840267.16,31181,2.88,73258.5,-8.63,-13.51,-14.23,0,*55
1545840268.43,31182,2.88,73252.3,-8.65,-13.51,-14.43,0,*56
1545840269.68,31183,2.88,73246.0,-8.65,-13.55,-14.43,0,*53
1545840270.93,31184,2.88,73250.0,-8.65,-13.55,-14.43,0,*54
1545840272.19,31185,2.88,73252.3,-8.65,-13.65,-14.43,0,*56
1545840273.45,31186,2.88,73254.8,-8.65,-13.65,-14.51,0,*56
1545840274.71,31187,2.88,73250.0,-8.65,-13.55,-14.51,0,*54
1545840275.96,31188,2.88,73252.8,-8.65,-13.65,-14.43,0,*5B
1545840277.22,31189,2.88,73258.3,-8.65,-13.55,-14.43,0,*59
1545840278.48,31190,2.81,73254.3,-8.65,-13.51,-14.43,0,*55
1545840279.71,31191,2.81,73260.3,-8.65,-13.43,-14.37,0,*54
1545840280.98,31192,2.88,73252.0,-8.65,-13.51,-14.51,0,*54
1545840282.21,31193,2.81,73252.3,-8.65,-13.55,-14.37,0,*51
1545840283.45,31194,2.81,73258.8,-8.65,-13.51,-14.37,0,*52
1545840284.69,31195,2.88,73266.5,-8.65,-13.43,-14.29,0,*5F
1545840285.92,31196,2.81,73254.8,-8.63,-13.37,-14.33,0,*52
1545840287.16,31197,2.88,73256.5,-8.67,-13.51,-14.43,0,*50
1545840288.37,31198,2.88,73248.8,-8.67,-13.55,-14.29,0,*57
1545840289.58,31199,2.81,73254.0,-8.67,-13.43,-14.37,0,*5E
1545840290.81,31200,2.81,73260.0,-8.67,-13.55,-14.43,0,*59
1545840292.1,31201,2.88,73262.3,-8.69,-13.61,-14.47,0,*55
1545840293.36,31202,2.88,73258.0,-8.65,-13.65,-14.51,0,*59
1545840294.62,31203,2.88,73264.0,-8.69,-13.69,-14.55,0,*5C
1545840295.86,31204,2.81,73256.8,-8.67,-13.65,-14.51,0,*5D
1545840297.09,31205,2.88,73248.8,-8.67,-13.65,-14.43,0,*5F
1545840298.32,31206,2.88,73254.0,-8.67,-13.65,-14.43,0,*5C
1545840299.55,31207,2.88,73260.8,-8.67,-13.65,-14.51,0,*5E
1545840300.78,31208,2.88,73260.5,-8.67,-13.55,-14.43,0,*51
1545840302.02,31209,2.88,73256.3,-8.67,-13.65,-14.51,0,*50
1545840303.25,31210,2.88,73258.8,-8.67,-13.69,-14.55,0,*50
1545840304.52,31211,2.81,73254.8,-8.69,-13.69,-14.55,0,*5F
1545840305.76,31212,2.88,73266.8,-8.67,-13.55,-14.51,0,*59
1545840306.99,31213,2.81,73256.0,-8.67,-13.65,-14.51,0,*5B
1545840308.25,31214,2.88,73252.8,-8.69,-13.69,-14.55,0,*5A
1545840309.49,31215,2.81,73248.3,-8.67,-13.65,-14.51,0,*5D
1545840310.76,31216,2.88,73258.5,-8.69,-13.69,-14.47,0,*5B
1545840311.99,31217,2.88,73254.5,-8.67,-13.65,-14.51,0,*5F
1545840313.29,31218,2.81,73246.8,-8.69,-13.83,-14.55,0,*52
1545840314.55,31219,2.81,73246.3,-8.69,-13.87,-14.61,0,*50
1545840315.78,31220,2.88,73250.3,-8.67,-13.69,-14.43,0,*54
1545840317.05,31221,2.81,73246.3,-8.69,-13.73,-14.47,0,*54
1545840318.26,31222,2.81,73248.0,-8.67,-13.55,-14.37,0,*5A
1545840319.49,31223,2.81,73250.8,-8.67,-13.55,-14.43,0,*58
1545840320.76,31224,2.81,73246.3,-8.69,-13.69,-14.55,0,*59
1545840321.99,31225,2.88,73248.5,-8.67,-13.55,-14.43,0,*5E
1545840323.28,31226,2.88,73260.5,-8.69,-13.61,-14.47,0,*50
1545840324.51,31227,2.88,73256.5,-8.67,-13.55,-14.43,0,*5C
1545840325.73,31228,2.88,73260.0,-8.67,-13.51,-14.37,0,*54
1545840326.96,31229,2.81,73250.8,-8.69,-13.47,-14.33,0,*58
1545840328.19,31230,2.88,73254.5,-8.67,-13.29,-14.11,0,*56
1545840329.41,31231,2.81,73262.0,-8.67,-13.23,-14.15,0,*59
1545840330.67,31232,2.81,73246.3,-8.69,-13.33,-14.19,0,*59
1545840331.88,31233,2.81,73250.8,-8.67,-13.43,-14.23,0,*58
1545840333.12,31234,2.81,73252.3,-8.67,-13.51,-14.51,0,*59
1545840334.36,31235,2.81,73256.0,-8.67,-13.51,-14.51,0,*58
1545840335.58,31236,2.81,73258.0,-8.67,-13.65,-14.65,0,*5B
1545840336.78,31237,2.88,73248.0,-8.67,-13.65,-14.69,0,*56
1545840338.02,31238,2.81,73248.0,-8.67,-13.55,-14.55,0,*55
1545840339.23,31239,2.88,73254.0,-8.67,-13.55,-14.65,0,*57
1545840340.47,31240,2.81,73250.3,-8.69,-13.47,-14.61,0,*50
1545840341.73,31241,2.81,73240.3,-8.69,-13.61,-14.61,0,*55
1545840342.97,31242,2.88,73250.8,-8.69,-13.47,-14.61,0,*52
1545840344.26,31243,2.81,73250.8,-8.69,-13.33,-14.55,0,*57
1545840345.5,31244,2.81,73248.0,-8.67,-13.51,-14.51,0,*5E
1545840346.74,31245,2.88,73248.8,-8.67,-13.43,-14.55,0,*58
1545840347.97,31246,2.88,73254.8,-8.67,-13.43,-14.51,0,*5F
1545840349.24,31247,2.88,73254.8,-8.69,-13.55,-14.55,0,*53
1545840350.47,31248,2.81,73252.3,-8.67,-13.43,-14.51,0,*51
1545840351.74,31249,2.81,73256.3,-8.69,-13.55,-14.55,0,*5D
1545840353.0,31250,2.81,73252.3,-8.69,-13.43,-14.55,0,*52
1545840354.25,31251,2.88,73254.0,-8.67,-13.51,-14.55,0,*5E
1545840355.48,31252,2.81,73254.8,-8.67,-13.43,-14.51,0,*5A
1545840356.72,31253,2.88,73252.5,-8.67,-13.51,-14.51,0,*58
1545840358.01,31254,2.81,73254.8,-8.69,-13.33,-14.55,0,*51
1545840359.28,31255,2.81,73240.8,-8.67,-13.37,-14.51,0,*5E
1545840360.52,31256,2.88,73248.0,-8.67,-13.51,-14.51,0,*5D
1545840361.77,31257,2.81,73252.3,-8.67,-13.29,-14.43,0,*50
1545840363.07,31258,2.81,73254.5,-8.69,-13.29,-14.47,0,*55
1545840364.33,31259,2.81,73256.8,-8.69,-13.29,-14.33,0,*57
1545840365.61,31260,2.88,73246.0,-8.69,-13.29,-14.43,0,*5A
1545840366.83,31261,2.81,73258.5,-8.67,-13.23,-14.29,0,*53
1545840368.07,31262,2.81,73254.0,-8.69,-13.19,-14.33,0,*5C
1545840369.3,31263,2.81,73250.5,-8.67,-13.23,-14.43,0,*5D
1545840370.59,31264,2.81,73254.5,-8.69,-13.33,-14.55,0,*52
1545840371.82,31265,2.88,73264.8,-8.69,-13.15,-14.33,0,*57
1545840373.03,31266,2.81,73256.5,-8.67,-13.07,-14.23,0,*58
1545840374.29,31267,2.81,73244.3,-8.69,-13.19,-14.43,0,*5E
1545840375.53,31268,2.88,73262.0,-8.67,-13.37,-14.37,0,*50
1545840376.79,31269,2.88,73262.5,-8.67,-13.33,-14.55,0,*51
1545840378.02,31270,2.88,73262.0,-8.67,-13.37,-14.37,0,*59
1545840379.29,31271,2.88,73254.5,-8.67,-13.37,-14.51,0,*58
1545840380.55,31272,2.88,73252.8,-8.67,-13.37,-14.51,0,*5B
1545840381.79,31273,2.88,73258.5,-8.67,-13.29,-14.37,0,*55
1545840383.02,31274,2.88,73250.3,-8.67,-13.29,-14.37,0,*52
1545840384.26,31275,2.81,73256.3,-8.67,-13.37,-14.37,0,*5C
1545840385.47,31276,2.81,73254.5,-8.67,-13.23,-14.29,0,*55
1545840386.68,31277,2.81,73254.3,-8.67,-13.23,-14.29,0,*54
1545840387.9,31278,2.81,73258.8,-8.67,-13.23,-14.23,0,*51
1545840389.11,31279,2.81,73258.5,-8.67,-13.23,-14.23,0,*50
1545840390.39,31280,2.81,73244.5,-8.69,-13.33,-14.43,0,*5F
1545840391.68,31281,2.81,73250.3,-8.69,-13.33,-14.47,0,*5A
1545840392.92,31282,2.81,73256.0,-8.67,-13.29,-14.37,0,*5B
1545840394.2,31283,2.88,73254.3,-8.69,-13.33,-14.43,0,*5C
1545840395.46,31284,2.88,73252.5,-8.69,-13.33,-14.29,0,*57
1545840396.7,31285,2.88,73248.0,-8.67,-13.29,-14.37,0,*5C
1545840397.94,31286,2.81,73250.0,-8.67,-13.29,-14.15,0,*5F
1545840399.2,31287,2.81,73244.3,-8.69,-13.29,-14.33,0,*54
1545840400.41,31288,2.81,73252.8,-8.67,-13.15,-14.15,0,*5E
1545840401.67,31289,2.81,73262.0,-8.69,-13.29,-14.29,0,*51
1545840402.91,31290,2.81,73232.5,-8.67,-13.37,-14.29,0,*58
1545840404.14,31291,2.81,73232.3,-8.67,-13.29,-14.29,0,*56
1545840405.41,31292,2.81,73250.5,-8.69,-13.29,-14.33,0,*50
1545840406.64,31293,2.81,73252.3,-8.67,-13.29,-14.29,0,*54
1545840407.88,31294,2.88,73262.3,-8.67,-13.37,-14.37,0,*53
1545840409.12,31295,2.88,73250.0,-8.67,-13.29,-14.23,0,*58
1545840410.33,31296,2.81,73248.8,-8.67,-13.51,-14.37,0,*51
1545840411.57,31297,2.88,73248.5,-8.67,-13.65,-14.51,0,*57
1545840412.8,31298,2.88,73256.5,-8.67,-13.51,-14.43,0,*5C
1545840414.01,31299,2.81,73252.5,-8.67,-13.43,-14.37,0,*5D
1545840415.23,31300,2.88,73258.0,-8.67,-13.51,-14.37,0,*5F
1545840416.48,31301,2.88,73260.5,-8.65,-13.55,-14.43,0,*5B
1545840417.72,31302,2.88,73284.3,-8.65,-13.55,-14.37,0,*5B
1545840419.01,31303,2.88,73254.5,-8.69,-13.61,-14.47,0,*56
1545840420.28,31304,2.81,73232.0,-8.69,-13.69,-14.47,0,*59
1545840421.52,31305,2.81,73226.3,-8.67,-13.65,-14.51,0,*5D
1545840422.77,31306,2.88,73238.8,-8.65,-13.65,-14.43,0,*5F
1545840424.04,31307,2.88,73268.5,-8.65,-13.51,-14.51,0,*5A
1545840425.3,31308,2.88,73234.0,-8.65,-13.55,-14.51,0,*51
1545840426.53,31309,2.81,73230.5,-8.65,-13.55,-14.37,0,*50
1545840427.75,31310,2.88,73254.5,-8.67,-13.51,-14.37,0,*5E
1545840428.99,31311,2.81,73256.5,-8.63,-13.51,-14.51,0,*5B
1545840430.21,31312,2.88,73228.3,-8.67,-13.51,-14.29,0,*53
1545840431.45,31313,2.88,73240.5,-8.67,-13.37,-14.15,0,*5D
1545840432.73,31314,2.88,73232.8,-8.65,-13.29,-14.01,0,*52
1545840433.97,31315,2.81,73244.0,-8.65,-13.23,-14.15,0,*5C
1545840435.24,31316,2.81,73222.0,-8.65,-13.23,-14.01,0,*5A
1545840436.49,31317,2.88,73240.5,-8.65,-13.29,-14.11,0,*50
1545840437.7,31318,2.81,73238.0,-8.63,-13.23,-14.11,0,*53
1545840438.95,31319,2.88,73232.8,-8.65,-13.29,-14.11,0,*5E
1545840440.21,31320,2.81,73234.3,-8.65,-13.15,-14.01,0,*5A
1545840441.45,31321,2.81,73224.0,-8.63,-13.19,-13.97,0,*59
1545840442.69,31322,2.81,73242.8,-8.63,-13.23,-13.97,0,*53
1545840443.92,31323,2.81,73234.5,-8.65,-13.15,-14.23,0,*59
1545840445.16,31324,2.88,73230.5,-8.65,-13.23,-14.15,0,*5E
1545840446.37,31325,2.81,73224.0,-8.63,-13.19,-14.19,0,*5C
1545840447.58,31326,2.81,73228.3,-8.63,-13.11,-14.19,0,*57
1545840448.81,31327,2.81,73228.3,-8.63,-13.29,-14.29,0,*5E
1545840450.07,31328,2.88,73224.8,-8.65,-13.29,-14.23,0,*5D
1545840451.34,31329,2.88,73222.0,-8.65,-13.29,-14.15,0,*59
1545840452.6,31330,2.81,73238.5,-8.65,-13.23,-13.97,0,*56
1545840453.86,31331,2.81,73236.8,-8.65,-13.07,-13.97,0,*51
1545840455.1,31332,2.81,73238.0,-8.63,-12.93,-13.97,0,*58
1545840456.3,31333,2.81,73234.5,-8.63,-13.07,-14.11,0,*5C
1545840457.51,31334,2.88,73226.5,-8.63,-13.19,-14.19,0,*5C
1545840458.71,31335,2.81,73228.8,-8.63,-13.07,-14.11,0,*5A
1545840459.95,31336,2.81,73238.0,-8.65,-13.07,-14.15,0,*5B
1545840461.15,31337,2.81,73242.3,-8.63,-12.93,-14.11,0,*54
1545840462.39,31338,2.81,73230.0,-8.65,-12.97,-14.15,0,*5D
1545840463.66,31339,2.81,73236.5,-8.65,-12.93,-13.97,0,*55
1545840464.91,31340,2.88,73252.0,-8.65,-12.79,-13.93,0,*5B
1545840466.16,31341,2.81,73226.3,-8.63,-12.79,-13.87,0,*59
1545840467.4,31342,2.81,73218.8,-8.65,-12.97,-14.15,0,*50
1545840468.66,31343,2.81,73222.3,-8.63,-13.01,-14.05,0,*58
1545840469.9,31344,2.81,73232.3,-8.63,-12.93,-13.97,0,*59
1545840471.16,31345,2.88,73230.0,-8.63,-13.01,-14.05,0,*5E
1545840472.36,31346,2.81,73230.3,-8.63,-13.07,-14.11,0,*5E
1545840473.59,31347,2.81,73234.5,-8.63,-12.79,-14.23,0,*56
1545840474.85,31348,2.81,73242.5,-8.65,-12.83,-14.23,0,*5A
1545840476.13,31349,2.88,73240.5,-8.65,-12.83,-14.43,0,*5D
1545840477.36,31350,2.88,73248.3,-8.63,-12.79,-14.37,0,*55
1545840478.61,31351,2.81,73238.5,-8.65,-12.83,-14.37,0,*57
1545840479.86,31352,2.88,73236.8,-8.63,-12.83,-14.43,0,*51
1545840481.12,31353,2.81,73232.0,-8.65,-12.93,-14.43,0,*57
1545840482.35,31354,2.88,73240.3,-8.65,-12.93,-14.29,0,*5C
1545840483.56,31355,2.88,73254.5,-8.63,-12.89,-14.37,0,*5F
1545840484.82,31356,2.88,73250.3,-8.65,-12.83,-14.37,0,*50
1545840486.1,31357,2.81,73242.8,-8.65,-12.83,-14.51,0,*51
1545840487.31,31358,2.81,73262.8,-8.63,-12.89,-14.33,0,*56
1545840488.54,31359,2.88,73264.0,-8.65,-12.93,-14.37,0,*5E
1545840489.8,31360,2.81,73256.8,-8.65,-12.93,-14.51,0,*54
1545840491.03,31361,2.81,73250.3,-8.63,-12.83,-14.37,0,*52
1545840492.27,31362,2.81,73250.5,-8.63,-12.71,-14.23,0,*59
1545840493.52,31363,2.81,73230.5,-8.65,-12.83,-14.29,0,*59
1545840494.78,31364,2.81,73226.8,-8.65,-12.97,-14.43,0,*57
1545840496.02,31365,2.81,73236.0,-8.65,-12.93,-14.23,0,*54
1545840497.28,31366,2.88,73238.3,-8.65,-12.79,-14.15,0,*56
1545840498.51,31367,2.88,73236.5,-8.65,-12.93,-14.29,0,*5C
1545840499.8,31368,2.81,73238.5,-8.65,-12.83,-14.01,0,*58
1545840501.04,31369,2.88,73236.3,-8.63,-12.83,-13.79,0,*57
1545840502.3,31370,2.81,73244.5,-8.65,-12.53,-13.43,0,*5D
1545840503.53,31371,2.88,73242.5,-8.65,-12.25,-13.15,0,*5E
1545840504.78,31372,2.81,73242.3,-8.63,-12.07,-13.19,0,*57
1545840506.04,31373,2.81,73236.8,-8.65,-12.21,-13.37,0,*58
1545840507.28,31374,2.81,73218.5,-8.65,-12.21,-13.23,0,*5A